GW0143 Weather Reports


time (UTC)temp
C
wind
direction
speed
KPH
gust
KPH
rain 1hr
cm
rain 24hr
cm
rain mn
cm
humidity
%
barometer
mb
20260905114521 15 149 8.0 11.3 0.00 0.08 0.00 61 1027.1
20260905113541 15 148 8.0 11.3 0.00 0.08 0.00 61 1027.1
20260905112522 15 158 9.7 12.9 0.00 0.08 0.00 62 1027.2
20260905111542 15 152 11.3 14.5 0.00 0.08 0.00 61 1027.0
20260905110522 14 151 9.7 14.5 0.00 0.08 0.00 62 1027.0
20260905105522 14 154 9.7 12.9 0.00 0.08 0.00 63 1027.0
20260905104542 14 154 9.7 11.3 0.00 0.08 0.00 62 1027.0
20260905103523 14 159 9.7 12.9 0.00 0.08 0.00 63 1026.9
20260905102517 14 159 9.7 12.9 0.00 0.08 0.00 62 1026.9
20260905101517 15 130 6.4 8.0 0.00 0.08 0.00 63 1026.9
20260905100524 15 146 8.0 11.3 0.00 0.08 0.00 63 1026.8
20260905095603 15 153 8.0 11.3 0.00 0.08 0.00 62 1026.9
20260905094518 15 156 11.3 14.5 0.00 0.08 0.00 61 1026.9
20260905093518 15 161 12.9 16.1 0.00 0.08 0.00 61 1026.9
20260905092518 15 157 12.9 16.1 0.00 0.08 0.00 62 1026.9
20260905091518 15 157 12.9 16.1 0.00 0.08 0.00 62 1027.0
20260905090521 15 153 12.9 17.7 0.00 0.08 0.00 63 1027.0
20260905085538 15 160 11.3 14.5 0.00 0.08 0.00 64 1027.0
20260905084519 14 163 12.9 16.1 0.00 0.08 0.00 65 1027.0
20260905083519 13 188 11.3 14.5 0.00 0.08 0.00 70 1027.1
20260905082519 14 183 12.9 19.3 0.00 0.08 0.00 66 1027.0
20260905081519 14 163 9.7 12.9 0.00 0.08 0.00 65 1027.1
20260905080559 14 180 12.9 17.7 0.00 0.08 0.00 64 1027.1
20260905075519 14 163 12.9 17.7 0.00 0.08 0.00 64 1027.1
20260905074519 13 158 12.9 16.1 0.00 0.08 0.00 66 1027.1
20260905073520 13 159 9.7 12.9 0.00 0.08 0.00 69 1027.1
20260905072520 13 162 11.3 12.9 0.00 0.08 0.00 68 1027.1
20260905071520 13 159 12.9 16.1 0.00 0.08 0.00 68 1027.1
20260905070518 14 162 11.3 16.1 0.00 0.08 0.00 67 1027.0
20260905065521 14 156 11.3 14.5 0.00 0.08 0.00 64 1027.0
20260905064521 14 178 9.7 12.9 0.00 0.08 0.00 67 1027.0
20260905063521 15 144 9.7 12.9 0.00 0.08 0.00 63 1026.9
20260905062541 14 157 9.7 14.5 0.00 0.08 0.00 64 1026.9
20260905061522 14 153 9.7 12.9 0.00 0.08 0.00 64 1026.8
20260905060521 14 160 11.3 14.5 0.00 0.08 0.00 64 1026.8
20260905055522 15 167 11.3 16.1 0.00 0.08 0.08 62 1026.8
20260905054522 15 161 11.3 14.5 0.00 0.08 0.08 60 1026.7
20260905053522 14 153 8.0 9.7 0.00 0.08 0.08 61 1026.7
20260905052522 13 141 6.4 9.7 0.00 0.08 0.08 64 1026.8
20260905051549 13 143 6.4 8.0 0.00 0.08 0.08 64 1026.9
20260905050517 13 135 6.4 9.7 0.00 0.08 0.08 64 1027.0
20260905045517 14 147 6.4 9.7 0.00 0.08 0.08 63 1027.0
20260905044517 14 151 8.0 11.3 0.00 0.08 0.08 63 1027.0
20260905043523 15 153 8.0 11.3 0.00 0.08 0.08 63 1027.0
20260905042524 14 151 8.0 12.9 0.00 0.08 0.08 65 1027.0
20260905041518 14 153 8.0 11.3 0.00 0.08 0.08 67 1027.1
20260905040518 13 154 8.0 11.3 0.00 0.08 0.08 71 1027.1
20260905035518 14 187 11.3 14.5 0.00 0.08 0.08 73 1027.0
20260905034518 15 190 12.9 16.1 0.00 0.08 0.08 71 1027.0
20260905033519 15 183 12.9 17.7 0.00 0.08 0.08 65 1026.8
20260905032519 15 177 14.5 19.3 0.00 0.08 0.08 63 1026.7
20260905031519 15 172 9.7 14.5 0.00 0.08 0.08 69 1026.7
20260905030519 15 191 12.9 17.7 0.00 0.08 0.08 67 1026.6
20260905025519 16 185 12.9 16.1 0.00 0.08 0.08 59 1026.5
20260905024519 17 150 9.7 14.5 0.00 0.08 0.08 53 1026.1
20260905023519 17 146 11.3 14.5 0.00 0.08 0.08 58 1026.0
20260905022520 16 150 12.9 17.7 0.05 0.08 0.08 58 1026.0
20260905021520 16 175 14.5 17.7 0.05 0.08 0.08 62 1026.0
20260905020517 16 171 16.1 22.5 0.08 0.08 0.08 62 1025.9
20260905015517 16 191 16.1 19.3 0.08 0.08 0.08 66 1026.0
20260905014521 16 201 16.1 24.1 0.08 0.08 0.08 66 1026.0
20260905013518 17 225 16.1 22.5 0.08 0.08 0.08 61 1026.0
20260905012538 18 232 14.5 24.1 0.03 0.03 0.03 58 1026.0
20260905011518 21 219 16.1 22.5 0.03 0.03 0.03 49 1025.8
20260905010518 22 190 17.7 24.1 0.00 0.00 0.00 44 1025.4
20260905005522 22 175 16.1 22.5 0.00 0.00 0.00 42 1025.2
20260905004520 22 167 12.9 19.3 0.00 0.00 0.00 39 1025.1
20260905003519 23 168 12.9 17.7 0.00 0.00 0.00 37 1025.0
20260905002522 24 157 12.9 14.5 0.00 0.00 0.00 35 1024.9
20260905001523 24 183 11.3 14.5 0.00 0.00 0.00 35 1025.0
20260905000543 24 128 4.8 8.0 0.00 0.00 0.00 34 1025.0
20260904235520 24 283 4.8 8.0 0.00 0.00 0.00 31 1024.9
20260904234517 23 269 4.8 8.0 0.00 0.00 0.00 31 1024.9
20260904233523 24 264 4.8 11.3 0.00 0.00 0.00 31 1024.8
20260904232523 24 246 4.8 9.7 0.00 0.00 0.00 30 1024.9
20260904231520 25 266 1.6 4.8 0.00 0.00 0.00 29 1024.9
20260904230521 25 271 3.2 6.4 0.00 0.00 0.00 30 1024.9
20260904225518 25 264 9.7 16.1 0.00 0.00 0.00 30 1024.9
20260904224521 25 209 4.8 8.0 0.00 0.00 0.00 28 1024.9
20260904223518 25 213 6.4 9.7 0.00 0.00 0.00 28 1025.0
20260904222544 24 280 6.4 14.5 0.00 0.00 0.00 30 1025.0
20260904221519 24 299 6.4 9.7 0.00 0.00 0.00 30 1025.1
20260904220519 24 285 8.0 14.5 0.00 0.00 0.00 30 1025.2
20260904215519 25 305 6.4 12.9 0.00 0.00 0.00 30 1025.3
20260904214519 25 294 9.7 17.7 0.00 0.00 0.00 30 1025.4
20260904213519 25 310 8.0 16.1 0.00 0.00 0.00 29 1025.3
20260904212520 26 286 16.1 25.7 0.00 0.00 0.00 27 1025.3
20260904211519 26 304 14.5 24.1 0.00 0.00 0.00 28 1025.3
20260904210520 25 305 8.0 17.7 0.00 0.00 0.00 27 1025.4
20260904205520 25 303 8.0 12.9 0.00 0.00 0.00 27 1025.4
20260904204520 25 274 8.0 16.1 0.00 0.00 0.00 27 1025.6
20260904203521 24 308 8.0 12.9 0.00 0.00 0.00 28 1025.7
20260904202517 24 287 8.0 16.1 0.00 0.00 0.00 28 1025.7
20260904201521 24 275 9.7 16.1 0.00 0.00 0.00 29 1025.8
20260904200521 24 291 9.7 16.1 0.00 0.00 0.00 28 1026.0
20260904195521 24 266 9.7 14.5 0.00 0.00 0.00 28 1026.0
20260904194521 25 251 8.0 14.5 0.00 0.00 0.00 27 1026.0
20260904193521 24 228 8.0 12.9 0.00 0.00 0.00 28 1026.1
20260904192519 24 256 9.7 16.1 0.00 0.00 0.00 29 1026.1
20260904191519 25 262 14.5 20.9 0.00 0.00 0.00 27 1026.2
20260904190519 25 235 11.3 24.1 0.00 0.00 0.00 28 1026.3
20260904185519 25 194 9.7 19.3 0.00 0.00 0.00 30 1026.5
20260904184519 25 245 11.3 24.1 0.00 0.00 0.00 28 1026.5
20260904183519 25 251 11.3 25.7 0.00 0.00 0.00 29 1026.5
20260904182517 24 170 6.4 12.9 0.00 0.00 0.00 31 1026.7
20260904181520 25 230 9.7 22.5 0.00 0.00 0.00 31 1026.7
20260904180520 24 238 11.3 24.1 0.00 0.00 0.00 31 1026.8
20260904175520 24 264 6.4 17.7 0.00 0.00 0.00 31 1026.9
20260904174523 23 311 8.0 14.5 0.00 0.00 0.00 32 1027.0
20260904173517 22 277 6.4 12.9 0.00 0.00 0.00 34 1026.9
20260904172518 22 275 9.7 16.1 0.00 0.00 0.00 34 1027.0
20260904171521 23 303 9.7 17.7 0.00 0.00 0.00 34 1026.9
20260904170518 23 268 11.3 24.1 0.00 0.00 0.00 33 1026.8
20260904165518 22 252 9.7 16.1 0.00 0.00 0.00 35 1026.8
20260904164518 22 254 4.8 14.5 0.00 0.00 0.00 36 1026.8
20260904163518 22 150 8.0 16.1 0.00 0.00 0.00 37 1026.8
20260904162519 22 191 14.5 20.9 0.00 0.00 0.00 37 1026.8
20260904161539 22 188 12.9 20.9 0.00 0.00 0.00 38 1026.7
20260904160519 21 172 8.0 17.7 0.00 0.00 0.00 38 1026.7
20260904155539 21 202 12.9 19.3 0.00 0.00 0.00 39 1026.8
20260904154519 21 195 9.7 14.5 0.00 0.00 0.00 40 1026.7
20260904153519 21 168 9.7 16.1 0.00 0.00 0.00 40 1026.7
20260904152520 20 170 14.5 17.7 0.00 0.00 0.00 42 1026.7
20260904151520 20 182 14.5 20.9 0.00 0.00 0.00 43 1026.6
20260904150520 20 180 14.5 19.3 0.00 0.00 0.00 44 1026.6
20260904145517 19 174 14.5 17.7 0.00 0.00 0.00 46 1026.6
20260904144517 19 178 14.5 19.3 0.00 0.00 0.00 46 1026.5
20260904143520 18 176 14.5 20.9 0.00 0.00 0.00 47 1026.5
20260904142521 18 183 16.1 20.9 0.00 0.00 0.00 48 1026.4
20260904141518 17 185 14.5 19.3 0.00 0.00 0.00 50 1026.3
20260904140519 17 189 14.5 22.5 0.00 0.00 0.00 51 1026.2
20260904135518 16 156 12.9 16.1 0.00 0.00 0.00 54 1026.2
20260904134521 16 153 12.9 14.5 0.00 0.00 0.00 55 1026.0
20260904133522 15 159 12.9 16.1 0.00 0.00 0.00 56 1026.0
20260904132542 14 160 11.3 14.5 0.00 0.00 0.00 59 1025.9
20260904131522 13 180 12.9 16.1 0.00 0.00 0.00 61 1025.8
20260904130522 12 183 11.3 16.1 0.00 0.00 0.00 63 1025.8
20260904125519 12 168 12.9 16.1 0.00 0.00 0.00 64 1025.6
20260904124522 12 166 11.3 16.1 0.00 0.00 0.00 63 1025.5
20260904123522 12 175 9.7 12.9 0.00 0.00 0.00 64 1025.4
20260904122520 12 163 12.9 17.7 0.00 0.00 0.00 63 1025.3
20260904121520 12 159 14.5 16.1 0.00 0.00 0.00 63 1025.2
20260904120523 12 156 12.9 16.1 0.00 0.00 0.00 61 1025.2
20260904115518 12 162 11.3 14.5 0.00 0.00 0.00 60 1025.1